NE2X Weather Reports


Display with metric or nautical units.
time (UTC)temp
F
wind
direction
speed
MPH
gust
MPH
rain 1hr
in
rain 24hr
in
rain mn
in
humidity
%
barometer
mb
20260505210904 83 201 7.0 23.0 0.00 0.00 0.00 29 1007.1
20260505210004 83 220 5.0 16.0 0.00 0.00 0.00 30 1007.1
20260505205404 83 222 5.0 16.0 0.00 0.00 0.00 29 1006.9
20260505204503 84 227 5.0 17.0 0.00 0.00 0.00 29 1006.9
20260505203604 84 238 5.0 15.0 0.00 0.00 0.00 31 1007.0
20260505202704 84 209 5.0 17.0 0.00 0.00 0.00 30 1007.2
20260505201803 83 203 6.0 16.0 0.00 0.00 0.00 30 1007.2
20260505200904 83 204 6.0 18.0 0.00 0.00 0.00 30 1007.3
20260505200025 83 197 7.0 22.0 0.00 0.00 0.00 30 1007.3
20260505195404 83 196 7.0 20.0 0.00 0.00 0.00 30 1007.4
20260505194504 83 195 7.0 24.0 0.00 0.00 0.00 30 1007.4
20260505193604 83 206 7.0 21.0 0.00 0.00 0.00 30 1007.6
20260505192727 83 201 8.0 20.0 0.00 0.00 0.00 30 1007.8
20260505191804 83 176 8.0 24.0 0.00 0.00 0.00 32 1007.8
20260505190904 83 194 6.0 19.0 0.00 0.00 0.00 31 1008.0
20260505190025 83 184 7.0 19.0 0.00 0.00 0.00 32 1008.1
20260505185404 83 184 7.0 20.0 0.00 0.00 0.00 33 1008.2
20260505184525 83 188 6.0 20.0 0.00 0.00 0.00 32 1008.7
20260505183605 83 200 6.0 17.0 0.00 0.00 0.00 35 1008.6
20260505182703 82 190 6.0 19.0 0.00 0.00 0.00 37 1008.6
20260505181803 82 194 7.0 21.0 0.00 0.00 0.00 36 1008.6
20260505180905 82 190 9.0 19.0 0.00 0.00 0.00 36 1008.7
20260505180004 82 173 8.0 30.0 0.00 0.00 0.00 35 1008.9
20260505175404 82 176 7.0 20.0 0.00 0.00 0.00 36 1008.6
20260505174503 82 184 7.0 19.0 0.00 0.00 0.00 35 1008.8
20260505173603 82 182 5.0 16.0 0.00 0.00 0.00 38 1008.9
20260505172724 82 185 3.0 11.0 0.00 0.00 0.00 39 1009.1
20260505171803 82 198 5.0 16.0 0.00 0.00 0.00 39 1009.2
20260505170924 82 203 3.0 16.0 0.00 0.00 0.00 40 1009.2
20260505170003 81 182 4.0 18.0 0.00 0.00 0.00 39 1009.3
20260505165403 80 183 6.0 18.0 0.00 0.00 0.00 40 1009.5
20260505164504 80 199 4.0 14.0 0.00 0.00 0.00 41 1009.6
20260505163605 81 186 3.0 9.0 0.00 0.00 0.00 41 1009.7
20260505162703 80 225 3.0 10.0 0.00 0.00 0.00 42 1009.9
20260505161803 79 203 5.0 17.0 0.00 0.00 0.00 41 1010.1
20260505160924 79 200 4.0 14.0 0.00 0.00 0.00 44 1010.0
20260505152704 77 185 3.0 9.0 0.00 0.00 0.00 45 1010.7
20260505151803 76 233 3.0 10.0 0.00 0.00 0.00 47 1010.8
20260505150903 76 218 2.0 14.0 0.00 0.00 0.00 49 1010.8
20260505124505 67 184 3.0 9.0 0.00 0.00 0.00 62 1010.7
20260505123604 65 202 4.0 9.0 0.00 0.00 0.00 65 1010.7
20260505122705 64 178 3.0 7.0 0.00 0.00 0.00 69 1010.8
20260505121825 63 190 2.0 7.0 0.00 0.00 0.00 71 1010.9
20260505120904 62 191 2.0 5.0 0.00 0.00 0.00 75 1011.1
20260505120005 60 186 2.0 5.0 0.00 0.00 0.00 78 1011.1
20260505115404 59 194 2.0 5.0 0.00 0.00 0.00 82 1011.1
20260505114504 58 179 1.0 5.0 0.00 0.00 0.00 81 1011.1
20260505113604 58 212 1.0 3.0 0.00 0.00 0.00 81 1011.1
20260505112704 58 162 2.0 5.0 0.00 0.00 0.00 80 1010.8
20260505111804 58 163 2.0 5.0 0.00 0.00 0.00 79 1010.9
20260505110904 59 144 2.0 5.0 0.00 0.00 0.00 74 1010.9
20260505101804 57 222 2.0 7.0 0.00 0.00 0.00 75 1010.9
20260505100904 55 130 1.0 5.0 0.00 0.00 0.00 79 1010.6
20260505100004 53 358 1.0 11.0 0.00 0.00 0.00 82 1010.5
20260505095404 52 305 1.0 11.0 0.00 0.00 0.00 85 1010.4
20260505094504 50 307 1.0 2.0 0.00 0.00 0.00 86 1010.4
20260505093604 50 309 1.0 3.0 0.00 0.00 0.00 86 1010.1
20260505092703 50 0 0.0 2.0 0.00 0.00 0.00 85 1010.0
20260505091804 50 0 0.0 2.0 0.00 0.00 0.00 85 1010.2
20260505090904 50 0 0.0 2.0 0.00 0.00 0.00 85 1010.2
20260505090004 51 301 1.0 2.0 0.00 0.00 0.00 83 1010.1
20260505085404 51 0 0.0 2.0 0.00 0.00 0.00 83 1010.2
20260505084524 51 0 0.0 1.0 0.00 0.00 0.00 82 1010.2
20260505083625 52 0 0.0 1.0 0.00 0.00 0.00 81 1010.1
20260505082703 52 0 0.0 1.0 0.00 0.00 0.00 80 1010.1
20260505081804 53 0 0.0 1.0 0.00 0.00 0.00 79 1010.1
20260505080903 53 306 1.0 2.0 0.00 0.00 0.00 78 1010.2
20260505080003 54 0 0.0 1.0 0.00 0.00 0.00 77 1010.0
20260505075404 54 303 1.0 2.0 0.00 0.00 0.00 76 1010.1
20260505074524 55 0 0.0 2.0 0.00 0.00 0.00 75 1010.1
20260505073606 55 0 0.0 2.0 0.00 0.00 0.00 73 1010.0
20260505072703 56 0 0.0 1.0 0.00 0.00 0.00 73 1010.1
20260505071803 56 0 0.0 2.0 0.00 0.00 0.00 73 1010.1
20260505070925 56 121 1.0 3.0 0.00 0.00 0.00 72 1009.9
20260505070004 56 106 1.0 4.0 0.00 0.00 0.00 72 1009.9
20260505065404 56 152 1.0 4.0 0.00 0.00 0.00 72 1010.0
20260505064503 55 0 0.0 2.0 0.00 0.00 0.00 73 1009.9
20260505063604 55 0 0.0 3.0 0.00 0.00 0.00 72 1010.0
20260505062704 55 187 1.0 4.0 0.00 0.00 0.00 73 1010.1
20260505061804 55 0 0.0 2.0 0.00 0.00 0.00 73 1010.1
20260505060904 54 174 1.0 4.0 0.00 0.00 0.00 73 1010.2
20260505060004 54 0 0.0 4.0 0.00 0.00 0.00 73 1010.2
20260505055404 54 0 0.0 2.0 0.00 0.00 0.00 73 1010.3
20260505054504 54 0 0.0 2.0 0.00 0.00 0.00 72 1010.3
20260505053603 55 0 0.0 2.0 0.00 0.00 0.00 70 1010.4
20260505052725 56 0 0.0 2.0 0.00 0.00 0.00 68 1010.4
20260505051825 57 0 0.0 1.0 0.00 0.00 0.00 66 1010.5
20260505050904 58 0 0.0 1.0 0.00 0.00 0.00 65 1010.6
20260505040904 59 0 0.0 4.0 0.00 0.00 0.00 61 1010.6
20260505040005 59 175 1.0 4.0 0.00 0.00 0.00 60 1010.7
20260505035404 59 193 1.0 3.0 0.00 0.00 0.00 60 1010.7
20260505034505 60 185 1.0 5.0 0.00 0.00 0.00 59 1010.8
20260505033603 60 183 1.0 5.0 0.00 0.00 0.00 58 1010.8
20260505032705 61 180 1.0 4.0 0.00 0.00 0.00 57 1010.8
20260505031804 61 179 1.0 4.0 0.00 0.00 0.00 56 1010.8
20260505030903 61 184 2.0 6.0 0.00 0.00 0.00 55 1010.8
20260505030004 62 188 2.0 9.0 0.00 0.00 0.00 55 1010.9
20260505025403 62 182 2.0 9.0 0.00 0.00 0.00 54 1010.9
20260505024504 62 164 1.0 6.0 0.00 0.00 0.00 54 1010.9
20260505023605 61 178 1.0 5.0 0.00 0.00 0.00 54 1010.9
20260505022703 61 198 1.0 4.0 0.00 0.00 0.00 54 1011.0
20260505021825 61 186 1.0 4.0 0.00 0.00 0.00 54 1011.0
20260505020903 61 194 1.0 4.0 0.00 0.00 0.00 53 1011.1
20260505020026 61 192 1.0 5.0 0.00 0.00 0.00 52 1011.0
20260505015425 60 185 1.0 3.0 0.00 0.00 0.00 53 1011.0
20260505014525 61 0 0.0 0.0 0.00 0.00 0.00 50 1010.9
20260505013603 62 0 0.0 0.0 0.00 0.00 0.00 48 1010.8
20260505012704 62 0 0.0 0.0 0.00 0.00 0.00 47 1010.7
20260505011803 63 0 0.0 0.0 0.00 0.00 0.00 46 1010.6
20260505010903 64 0 0.0 1.0 0.00 0.00 0.00 45 1010.5
20260505010027 64 0 0.0 4.0 0.00 0.00 0.00 44 1010.4
20260505005403 65 0 0.0 3.0 0.00 0.00 0.00 43 1010.3
20260505004504 65 188 1.0 5.0 0.00 0.00 0.00 43 1010.0
20260505003603 66 201 1.0 5.0 0.00 0.00 0.00 42 1010.0
20260505002704 66 191 1.0 5.0 0.00 0.00 0.00 41 1009.9
20260505001803 67 239 1.0 7.0 0.00 0.00 0.00 41 1009.7
20260505000904 67 183 2.0 6.0 0.00 0.00 0.00 39 1009.7
20260505000025 68 199 2.0 8.0 0.00 0.00 0.00 39 1009.5
20260504235404 68 184 2.0 5.0 0.00 0.00 0.00 39 1009.4
20260504234503 69 187 1.0 6.0 0.00 0.00 0.00 38 1009.2
20260504233603 69 190 2.0 7.0 0.00 0.00 0.00 37 1009.2
20260504232725 69 197 3.0 11.0 0.00 0.00 0.00 37 1009.0
20260504231804 70 212 2.0 8.0 0.00 0.00 0.00 37 1008.9
20260504230924 70 193 1.0 8.0 0.00 0.00 0.00 37 1008.9
20260504230003 70 245 2.0 5.0 0.00 0.00 0.00 37 1008.8
20260504225403 70 210 3.0 11.0 0.00 0.00 0.00 36 1008.7
20260504224504 70 203 3.0 13.0 0.00 0.00 0.00 35 1008.7
20260504223624 71 201 2.0 10.0 0.00 0.00 0.00 36 1008.9
20260504220903 72 259 3.0 9.0 0.00 0.00 0.00 33 1008.9
20260504220003 72 240 3.0 9.0 0.00 0.00 0.00 33 1008.9
20260504215403 72 246 4.0 13.0 0.00 0.00 0.00 35 1009.1
20260504214503 73 270 3.0 9.0 0.00 0.00 0.00 33 1009.1
20260504213603 73 209 3.0 11.0 0.00 0.00 0.00 33 1009.1
20260504212703 73 256 4.0 9.0 0.00 0.00 0.00 33 1009.2
20260504211803 74 250 4.0 10.0 0.00 0.00 0.00 33 1009.2